Skip Page Navigation
NASA JPL Caltech
NASA Logo - Jet Propulsion Laboratory + View the NASA Portal
+ Near-Earth Object (NEO) Program
Search JPL
JPL Home Earth Solar System Stars & Galaxies Technology
JPL Solar System Dynamics
BODIES ORBITS EPHEMERIDES TOOLS PHYSICAL DATA DISCOVERY FAQ SITE MAP
JPL Small-Body Database Browser
Search: [ help ]  
8045 Kamiyama (1995 AW)
Classification: Main-belt Asteroid          SPK-ID: 2008045
Ephemeris | Orbit Diagram | Orbital Elements | Physical Parameters | Discovery Circumstances | Close-Approach Data ]

[ show orbit diagram ]
Orbital Elements at Epoch 2457000.5 (2014-Dec-09.0) TDB
Reference: JPL 7 (heliocentric ecliptic J2000)
 Element Value Uncertainty (1-sigma)   Units 
e .1383746534835976 6.3781e-08  
a 2.59814779088416 1.8452e-08 AU
q 2.23862999062139 1.6586e-07 AU
i 11.97092275740524 5.9725e-06 deg
node 295.4569653079294 3.0521e-05 deg
peri 248.7510579174503 3.5417e-05 deg
M 222.0747427820627 1.8103e-05 deg
tp 2457586.551127587728
(2016-Jul-17.05112759)
7.7792e-05 JED
period 1529.657512968873
4.19
1.6295e-05
4.461e-08
d
yr
n .2353467994945387 2.5071e-09 deg/d
Q 2.95766559114693 2.1005e-08 AU
  Orbit Determination Parameters
   # obs. used (total)      895  
   data-arc span      23896 days (65.42 yr)  
   first obs. used      1949-01-28  
   last obs. used      2014-07-02  
   planetary ephem.      DE431  
   SB-pert. ephem.      SB431-BIG16  
   condition code      0  
   fit RMS      .54488  
   data source      ORB  
   producer      Otto Matic  
   solution date      2014-Jul-14 12:18:40  

Additional Information
 Earth MOID = 1.2755 AU 
 T_jup = 3.372 
[ show covariance matrix ]

Ephemeris | Orbit Diagram | Orbital Elements | Physical Parameters | Discovery Circumstances | Close-Approach Data ]

Physical Parameter Table
Parameter Symbol Value Units Sigma Reference Notes
absolute magnitude H 12.4 mag n/a MPO267740  

8045 Kamiyama           Discovered 1995 Jan. 6 by T. Kobayashi at Oizumi.
Haruki Kamiyama (b. 1960) is an amateur astronomer and computer programmer.
NOTE: some special characters may not display properly (any characters within {} are an attempt to place the proper accent above a character)
Reference: 20030106/MPCPages.arcLast Updated: 2003-10-02

[ show close-approach data ]
Alternate Designations
 1995 AW = 1949 BH = 1970 CU = 1973 YV3 = 1991 BT4 
Ephemeris | Orbit Diagram | Orbital Elements | Physical Parameters | Discovery Circumstances | Close-Approach Data ]
ABOUT SSD CREDITS/AWARDS PRIVACY/COPYRIGHT GLOSSARY LINKS
FirstGov 2014-Sep-18 11:42 UT
(server date/time)  
NASA Home Page
Site Manager:   Donald K. Yeomans
Webmaster  Alan B. Chamberlin